Simultaneous Nadir Overpasses (SNOs) Predictions

Prediction of SNOs between GOES-16 and AQUA Satellite Orbit:

Table of predicted SNOs for the next 14.0 days since TLE Epoch: 8/14/2020
Index Date Time (GOES-16) GOES-16 Lat,Lon AQUA Lat,Lon Distance(km) Time Diff (sec)
1 08/15/2020 06:41:52 -0.05, -75.18 0.33, -76.82 187.91 80
2 08/17/2020 06:32:22 -0.05, -75.16 -0.35, -73.88 146.64 80
3 08/17/2020 18:51:06 0.06, -75.17 -0.78, -79.07 443.12 80
4 08/19/2020 06:20:11 -0.06, -75.15 -0.98, -70.92 481.64 80
5 08/19/2020 18:38:55 0.06, -75.16 -0.16, -76.11 107.94 80
6 08/21/2020 18:29:24 0.06, -75.16 0.47, -73.15 228.00 80
7 08/22/2020 06:48:00 -0.07, -75.15 0.59, -78.32 359.39 80
8 08/24/2020 06:38:29 -0.07, -75.16 -0.04, -75.36 22.92 80
9 08/26/2020 06:26:18 -0.07, -75.16 -0.67, -72.41 313.96 80
10 08/26/2020 18:45:02 0.07, -75.18 -0.47, -77.59 275.44 80
11 08/28/2020 18:35:31 0.08, -75.19 0.17, -74.64 61.93 80
